Find Kosmos-2510

NORAD ID: 41032 Int'l Des: 2015-066 Owner: VVKOV Country: RU operational
又名: COSMOS 2510 spacetrack COSMOS 2510 (EKS 1) celestrak
MEOELLIPTICALHEO_ELLIPTICALSEMI_SYNCMOLNIYA

当前视图

正在加载3D地球...

About Kosmos-2510

Kosmos-2510 (NORAD 41032) is a satellite launched Nov 17, 2015 by VVKOV of RU. It operates in MEO, ELLIPTICAL, HEO_ELLIPTICAL, SEMI_SYNC, MOLNIYA orbit with a mass of 2550.00 kg.

即将过境

Passes for default location (London). Set your location on the main map for personalized predictions.

高度历史

Loading altitude history...

两行轨道根数

1 41032U 15066A 26253.10460074 -.00001250 00000-0 00000-0 0 9997
2 41032 63.4454 334.4571 7192891 274.8701 14.0011 2.00671985 79170
Epoch: Sep 10, 2026 • Age: 81 hours

当前状态

高度 24198.7 km
远地点 / 近地点 N/A
速度 3.33 km/s
星下点 42.42°N, 41.19°W
发射日期 Nov 17, 2015
运行时间 10.8 years
类型 other

技术详情

分类 Payload
质量 2550.00 kg
干质量 2000.00 kg
总质量 2550.00 kg
长度 4.00 m
直径 2.00 m
跨度 10.00 m
形状 Box + 2 Pan
制造商 RKKE/KOMET
平台类型 14F142 EKS
阶段状态 In Orbit
所有者/国家 VVKOV/RU

Most Searched